Location: Auckland
(36.8670°S, 174.7670°E)
Time: 04:42:07
(UTC+13:00)

Cosmos 2219 Rocket - Pass Details

Date: 18 November 2019
Orbit: 827 x 847 km, 71.0° (Epoch: 10 December)

Event Time Altitude Azimuth Distance (km) Brightness Sun altitude
Rises 21:00:33 0° 211° (SSW) 3,409 6.6 -9.5°
Reaches altitude 10° 21:03:10 10° 219° (SW) 2,465 6.0 -9.9°
Maximum altitude 21:08:19 37° 284° (WNW) 1,271 3.6 -10.8°
Drops below altitude 10° 21:13:24 10° 350° (N) 2,430 4.3 -11.6°
Sets 21:15:58 0° 358° (N) 3,354 5.0 -12.0°
